Time,TemperatureF,DewpointF,PressureIn,WindDirection,WindDirectionDegrees,WindSpeedMPH,WindSpeedGustMPH,Humidity,HourlyPrecipIn,Conditions,Clouds,dailyrainin,SoftwareType,DateUTC
2013-01-06 00:00:00,25.5,9.0,30.18,SSW,210,0.0,2.7,49,0.00,,---,0.00,VWS V14.01,2013-01-06 05:00:00,
2013-01-06 00:02:00,25.5,9.0,30.18,SSW,210,0.0,2.7,49,0.00,,---,0.00,VWS V14.01,2013-01-06 05:02:00,
2013-01-06 00:07:00,25.7,9.2,30.18,SSW,210,0.0,0.0,49,0.00,,---,0.00,VWS V14.01,2013-01-06 05:07:00,
2013-01-06 00:08:00,25.7,9.2,30.18,SSW,210,0.0,0.0,49,0.00,,---,0.00,VWS V14.01,2013-01-06 05:08:00,
2013-01-06 00:13:00,25.7,9.2,30.18,SSW,210,0.0,0.0,49,0.00,,---,0.00,VWS V14.01,2013-01-06 05:13:00,
2013-01-06 00:18:00,25.9,9.4,30.18,SSW,210,0.0,0.0,49,0.00,,---,0.00,VWS V14.01,2013-01-06 05:18:00,
2013-01-06 00:23:00,25.7,9.2,30.18,SSW,210,0.0,0.0,49,0.00,,---,0.00,VWS V14.01,2013-01-06 05:23:00,
2013-01-06 00:28:00,25.7,9.2,30.18,SSW,210,0.0,0.0,49,0.00,,---,0.00,VWS V14.01,2013-01-06 05:28:00,
2013-01-06 00:33:00,25.7,9.2,30.18,SSW,210,0.0,0.0,49,0.00,,---,0.00,VWS V14.01,2013-01-06 05:33:00,
2013-01-06 00:38:00,25.9,9.4,30.18,SSW,210,0.0,0.0,49,0.00,,---,0.00,VWS V14.01,2013-01-06 05:38:00,
2013-01-06 00:43:00,25.9,9.4,30.18,SSW,210,0.0,0.0,49,0.00,,---,0.00,VWS V14.01,2013-01-06 05:43:00,
2013-01-06 00:48:00,25.9,9.4,30.18,SSW,210,0.0,0.0,49,0.00,,---,0.00,VWS V14.01,2013-01-06 05:48:00,
2013-01-06 00:53:00,26.1,9.5,30.21,SSW,210,2.7,3.1,49,0.00,,---,0.00,VWS V14.01,2013-01-06 05:53:00,
2013-01-06 00:58:00,26.2,9.7,30.21,SSW,210,0.0,0.0,49,0.00,,---,0.00,VWS V14.01,2013-01-06 05:58:00,
2013-01-06 01:03:00,26.1,9.5,30.21,SSW,210,2.7,3.1,49,0.00,,---,0.00,VWS V14.01,2013-01-06 06:03:00,
2013-01-06 01:09:00,26.1,9.5,30.18,SSW,210,0.0,0.0,49,0.00,,---,0.00,VWS V14.01,2013-01-06 06:09:00,
2013-01-06 01:14:00,26.2,9.7,30.18,SSW,210,0.0,0.0,49,0.00,,---,0.00,VWS V14.01,2013-01-06 06:14:00,
2013-01-06 01:19:00,26.2,9.7,30.18,SSW,210,0.0,0.0,49,0.00,,---,0.00,VWS V14.01,2013-01-06 06:19:00,
2013-01-06 01:24:00,26.4,9.9,30.18,SSW,210,0.0,0.0,49,0.00,,---,0.00,VWS V14.01,2013-01-06 06:24:00,
2013-01-06 01:29:00,26.6,10.0,30.18,SSW,210,0.0,0.0,49,0.00,,---,0.00,VWS V14.01,2013-01-06 06:29:00,
2013-01-06 01:34:00,26.8,10.2,30.18,SSW,210,0.0,0.0,49,0.00,,---,0.00,VWS V14.01,2013-01-06 06:34:00,
2013-01-06 01:39:00,26.8,10.2,30.18,SSW,210,0.0,0.0,49,0.00,,---,0.00,VWS V14.01,2013-01-06 06:39:00,
2013-01-06 01:44:00,26.8,10.2,30.18,SSW,210,0.0,0.0,49,0.00,,---,0.00,VWS V14.01,2013-01-06 06:44:00,
2013-01-06 01:49:00,26.8,10.2,30.18,SSW,210,0.0,3.1,49,0.00,,---,0.00,VWS V14.01,2013-01-06 06:49:00,
2013-01-06 01:54:00,27.0,10.4,30.21,SSW,210,0.0,0.0,49,0.00,,---,0.00,VWS V14.01,2013-01-06 06:54:00,
2013-01-06 01:59:00,26.8,10.2,30.21,SSW,210,0.0,2.7,49,0.00,,---,0.00,VWS V14.01,2013-01-06 06:59:00,
2013-01-06 02:04:00,26.6,10.0,30.21,SSW,210,2.7,3.1,49,0.00,,---,0.00,VWS V14.01,2013-01-06 07:04:00,
2013-01-06 02:09:00,26.4,9.9,30.18,SSW,210,0.0,3.1,49,0.00,,---,0.00,VWS V14.01,2013-01-06 07:09:00,
2013-01-06 02:14:00,26.4,9.9,30.18,SSW,210,0.0,3.1,49,0.00,,---,0.00,VWS V14.01,2013-01-06 07:14:00,
2013-01-06 02:19:00,26.4,9.9,30.18,SSW,210,0.0,0.0,49,0.00,,---,0.00,VWS V14.01,2013-01-06 07:19:00,
2013-01-06 02:24:00,26.4,9.9,30.18,SSW,210,2.7,3.6,49,0.00,,---,0.00,VWS V14.01,2013-01-06 07:24:00,
2013-01-06 02:29:00,26.6,10.5,30.18,SSW,210,3.1,4.0,50,0.00,,---,0.00,VWS V14.01,2013-01-06 07:29:00,
2013-01-06 02:34:00,26.8,10.6,30.18,SSW,210,2.7,3.1,50,0.00,,---,0.00,VWS V14.01,2013-01-06 07:34:00,
2013-01-06 02:39:00,27.0,10.8,30.15,SSW,210,0.0,0.0,50,0.00,,---,0.00,VWS V14.01,2013-01-06 07:39:00,
2013-01-06 02:44:00,27.1,11.4,30.15,SSW,210,0.0,0.0,51,0.00,,---,0.00,VWS V14.01,2013-01-06 07:44:00,
2013-01-06 02:49:00,27.3,11.1,30.15,SSW,210,0.0,0.0,50,0.00,,---,0.00,VWS V14.01,2013-01-06 07:49:00,
2013-01-06 02:54:00,27.3,11.1,30.15,SSW,210,0.0,0.0,50,0.00,,---,0.00,VWS V14.01,2013-01-06 07:54:00,
2013-01-06 02:59:00,27.3,11.1,30.15,SSW,210,0.0,0.0,50,0.00,,---,0.00,VWS V14.01,2013-01-06 07:59:00,
2013-01-06 03:04:00,27.3,11.1,30.15,SSW,210,0.0,2.7,50,0.00,,---,0.00,VWS V14.01,2013-01-06 08:04:00,
2013-01-06 03:09:00,27.3,11.1,30.15,SSW,210,0.0,0.0,50,0.00,,---,0.00,VWS V14.01,2013-01-06 08:09:00,
2013-01-06 03:14:00,27.5,11.3,30.15,SSW,210,0.0,0.0,50,0.00,,---,0.00,VWS V14.01,2013-01-06 08:14:00,
2013-01-06 03:19:00,27.5,11.3,30.15,SSW,210,0.0,0.0,50,0.00,,---,0.00,VWS V14.01,2013-01-06 08:19:00,
2013-01-06 03:24:00,27.5,10.9,30.15,SSW,210,0.0,4.0,49,0.00,,---,0.00,VWS V14.01,2013-01-06 08:24:00,
2013-01-06 03:29:00,27.5,10.9,30.15,SSW,210,0.0,0.0,49,0.00,,---,0.00,VWS V14.01,2013-01-06 08:29:00,
2013-01-06 03:34:00,27.7,11.0,30.15,SSW,210,0.0,0.0,49,0.00,,---,0.00,VWS V14.01,2013-01-06 08:34:00,
2013-01-06 03:39:00,27.5,10.9,30.15,SSW,210,0.0,0.0,49,0.00,,---,0.00,VWS V14.01,2013-01-06 08:39:00,
2013-01-06 03:44:00,27.5,11.3,30.15,SSW,210,0.0,3.1,50,0.00,,---,0.00,VWS V14.01,2013-01-06 08:44:00,
2013-01-06 03:49:00,27.3,11.6,30.15,SSW,210,2.7,3.1,51,0.00,,---,0.00,VWS V14.01,2013-01-06 08:49:00,
2013-01-06 03:54:00,27.3,11.6,30.12,SSW,210,0.0,2.7,51,0.00,,---,0.00,VWS V14.01,2013-01-06 08:54:00,
2013-01-06 03:59:00,27.1,11.9,30.12,SSW,210,3.1,3.1,52,0.00,,---,0.00,VWS V14.01,2013-01-06 08:59:00,
2013-01-06 04:04:00,27.1,11.9,30.12,SSW,210,0.0,2.7,52,0.00,,---,0.00,VWS V14.01,2013-01-06 09:04:00,
2013-01-06 04:09:00,27.3,12.5,30.12,SSW,210,0.0,0.0,53,0.00,,---,0.00,VWS V14.01,2013-01-06 09:09:00,
2013-01-06 04:14:00,27.3,12.5,30.12,SSW,210,0.0,2.7,53,0.00,,---,0.00,VWS V14.01,2013-01-06 09:14:00,
2013-01-06 04:19:00,27.1,12.3,30.12,SSW,210,0.0,2.7,53,0.00,,---,0.00,VWS V14.01,2013-01-06 09:19:00,
2013-01-06 04:24:00,27.1,12.3,30.12,SSW,210,0.0,3.1,53,0.00,,---,0.00,VWS V14.01,2013-01-06 09:24:00,
2013-01-06 04:29:00,27.1,12.3,30.12,SSW,210,0.0,0.0,53,0.00,,---,0.00,VWS V14.01,2013-01-06 09:29:00,
2013-01-06 04:34:00,27.1,12.3,30.12,SSW,210,0.0,0.0,53,0.00,,---,0.00,VWS V14.01,2013-01-06 09:34:00,
2013-01-06 04:39:00,27.1,12.7,30.12,SSW,210,0.0,0.0,54,0.00,,---,0.00,VWS V14.01,2013-01-06 09:39:00,
2013-01-06 04:44:00,27.1,12.7,30.12,SSW,210,0.0,0.0,54,0.00,,---,0.00,VWS V14.01,2013-01-06 09:44:00,
2013-01-06 04:49:00,27.1,12.7,30.12,SSW,210,0.0,0.0,54,0.00,,---,0.00,VWS V14.01,2013-01-06 09:49:00,
2013-01-06 04:54:00,27.1,12.7,30.09,SSW,210,0.0,0.0,54,0.00,,---,0.00,VWS V14.01,2013-01-06 09:54:00,
2013-01-06 04:59:00,27.1,12.7,30.09,SSW,210,0.0,0.0,54,0.00,,---,0.00,VWS V14.01,2013-01-06 09:59:00,
2013-01-06 05:04:00,27.1,12.7,30.09,SSW,210,0.0,0.0,54,0.00,,---,0.00,VWS V14.01,2013-01-06 10:04:00,
2013-01-06 05:09:00,27.1,13.1,30.09,SSW,210,3.1,3.1,55,0.00,,---,0.00,VWS V14.01,2013-01-06 10:09:00,
2013-01-06 05:14:00,27.1,13.1,30.09,SSW,210,0.0,0.0,55,0.00,,---,0.00,VWS V14.01,2013-01-06 10:14:00,
2013-01-06 05:19:00,27.1,13.1,30.09,SSW,210,0.0,2.7,55,0.00,,---,0.00,VWS V14.01,2013-01-06 10:19:00,
2013-01-06 05:24:00,27.1,13.5,30.09,SSW,210,0.0,0.0,56,0.00,,---,0.00,VWS V14.01,2013-01-06 10:24:00,
2013-01-06 05:29:00,27.1,13.5,30.09,SSW,210,0.0,0.0,56,0.00,,---,0.00,VWS V14.01,2013-01-06 10:29:00,
2013-01-06 05:34:00,27.3,13.7,30.09,SSW,210,0.0,0.0,56,0.00,,---,0.00,VWS V14.01,2013-01-06 10:34:00,
2013-01-06 05:39:00,27.5,13.9,30.09,SSW,210,0.0,0.0,56,0.00,,---,0.00,VWS V14.01,2013-01-06 10:39:00,
2013-01-06 05:44:00,27.5,13.9,30.09,SSW,210,0.0,0.0,56,0.00,,---,0.00,VWS V14.01,2013-01-06 10:44:00,
2013-01-06 05:49:00,27.5,13.9,30.09,SSW,210,0.0,0.0,56,0.00,,---,0.00,VWS V14.01,2013-01-06 10:49:00,
2013-01-06 05:54:00,27.7,14.0,30.09,SSW,210,0.0,0.0,56,0.00,,---,0.00,VWS V14.01,2013-01-06 10:54:00,
2013-01-06 05:59:00,27.7,14.0,30.09,SSW,210,0.0,0.0,56,0.00,,---,0.00,VWS V14.01,2013-01-06 10:59:00,
2013-01-06 06:04:00,27.9,14.2,30.09,SSW,210,0.0,0.0,56,0.00,,---,0.00,VWS V14.01,2013-01-06 11:04:00,
2013-01-06 06:09:00,27.9,14.2,30.09,SSW,210,0.0,0.0,56,0.00,,---,0.00,VWS V14.01,2013-01-06 11:09:00,
2013-01-06 06:14:00,27.9,14.2,30.09,SSW,210,0.0,2.7,56,0.00,,---,0.00,VWS V14.01,2013-01-06 11:14:00,
2013-01-06 06:20:00,27.9,14.2,30.09,SSW,210,0.0,0.0,56,0.00,,---,0.00,VWS V14.01,2013-01-06 11:20:00,
2013-01-06 06:25:00,27.9,14.2,30.09,SSW,210,0.0,0.0,56,0.00,,---,0.00,VWS V14.01,2013-01-06 11:25:00,
2013-01-06 06:30:00,27.7,14.0,30.09,SSW,210,0.0,0.0,56,0.00,,---,0.00,VWS V14.01,2013-01-06 11:30:00,
2013-01-06 06:35:00,27.5,13.9,30.09,SSW,210,0.0,0.0,56,0.00,,---,0.00,VWS V14.01,2013-01-06 11:35:00,
2013-01-06 06:40:00,27.3,13.7,30.09,SSW,210,0.0,0.0,56,0.00,,---,0.00,VWS V14.01,2013-01-06 11:40:00,
2013-01-06 06:45:00,27.3,13.7,30.09,SSW,210,0.0,0.0,56,0.00,,---,0.00,VWS V14.01,2013-01-06 11:45:00,
2013-01-06 06:50:00,27.3,13.7,30.09,SSW,210,0.0,0.0,56,0.00,,---,0.00,VWS V14.01,2013-01-06 11:50:00,
2013-01-06 06:55:00,27.3,14.1,30.09,SSW,210,2.7,3.1,57,0.00,,---,0.00,VWS V14.01,2013-01-06 11:55:00,
2013-01-06 07:00:00,27.5,14.3,30.09,SSW,209,0.0,0.0,57,0.00,,---,0.00,VWS V14.01,2013-01-06 12:00:00,
2013-01-06 07:05:00,27.5,14.3,30.09,SSW,210,0.0,0.0,57,0.00,,---,0.00,VWS V14.01,2013-01-06 12:05:00,
2013-01-06 07:10:00,27.5,13.9,30.09,SSW,210,0.0,0.0,56,0.00,,---,0.00,VWS V14.01,2013-01-06 12:10:00,
2013-01-06 07:15:00,27.7,14.0,30.09,SSW,210,0.0,0.0,56,0.00,,---,0.00,VWS V14.01,2013-01-06 12:15:00,
2013-01-06 07:20:00,27.7,14.0,30.09,SSW,210,0.0,2.7,56,0.00,,---,0.00,VWS V14.01,2013-01-06 12:20:00,
2013-01-06 07:25:00,27.9,14.6,30.09,SSW,210,0.0,2.7,57,0.00,,---,0.00,VWS V14.01,2013-01-06 12:25:00,
2013-01-06 07:30:00,28.0,14.8,30.09,SSW,210,2.7,2.7,57,0.00,,---,0.00,VWS V14.01,2013-01-06 12:30:00,
2013-01-06 07:35:00,28.2,15.0,30.09,SSW,210,0.0,0.0,57,0.00,,---,0.00,VWS V14.01,2013-01-06 12:35:00,
2013-01-06 07:40:00,28.4,15.1,30.09,SSW,210,0.0,0.0,57,0.00,,---,0.00,VWS V14.01,2013-01-06 12:40:00,
2013-01-06 07:45:00,28.6,15.3,30.09,SSW,210,0.0,0.0,57,0.00,,---,0.00,VWS V14.01,2013-01-06 12:45:00,
2013-01-06 07:50:00,28.8,15.5,30.09,SSW,210,0.0,3.1,57,0.00,,---,0.00,VWS V14.01,2013-01-06 12:50:00,
2013-01-06 07:55:00,29.1,15.8,30.09,SSW,210,2.7,3.6,57,0.00,,---,0.00,VWS V14.01,2013-01-06 12:55:00,
2013-01-06 08:00:00,29.5,16.1,30.09,SSW,210,4.5,6.9,57,0.00,,---,0.00,VWS V14.01,2013-01-06 13:00:00,
2013-01-06 08:05:00,29.8,16.5,30.09,SSW,210,2.7,3.6,57,0.00,,---,0.00,VWS V14.01,2013-01-06 13:05:00,
2013-01-06 08:10:00,30.2,16.8,30.09,SSW,210,0.0,3.1,57,0.00,,---,0.00,VWS V14.01,2013-01-06 13:10:00,
2013-01-06 08:15:00,30.6,17.6,30.09,SSW,210,2.7,3.1,58,0.00,,---,0.00,VWS V14.01,2013-01-06 13:15:00,
2013-01-06 08:20:00,31.1,17.7,30.09,SSW,210,3.6,4.9,57,0.00,,---,0.00,VWS V14.01,2013-01-06 13:20:00,
2013-01-06 08:25:00,31.5,18.0,30.09,SW,227,4.0,6.7,57,0.00,,---,0.00,VWS V14.01,2013-01-06 13:25:00,
2013-01-06 08:30:00,31.8,17.9,30.09,SW,234,2.7,5.4,56,0.00,,---,0.00,VWS V14.01,2013-01-06 13:30:00,
2013-01-06 08:35:00,31.8,17.9,30.09,SW,234,0.0,4.5,56,0.00,,---,0.00,VWS V14.01,2013-01-06 13:35:00,
2013-01-06 08:40:00,31.8,17.5,30.06,SW,231,3.1,5.4,55,0.00,,---,0.00,VWS V14.01,2013-01-06 13:40:00,
2013-01-06 08:45:00,32.0,17.7,30.06,SW,215,6.9,6.9,55,0.00,,---,0.00,VWS V14.01,2013-01-06 13:45:00,
2013-01-06 08:50:00,32.2,17.4,30.06,WSW,247,3.1,7.8,54,0.00,,---,0.00,VWS V14.01,2013-01-06 13:50:00,
2013-01-06 08:55:00,32.7,17.5,30.09,West,259,6.3,7.8,53,0.00,,---,0.00,VWS V14.01,2013-01-06 13:55:00,
2013-01-06 09:00:00,33.1,17.4,30.09,SSW,200,5.8,10.1,52,0.00,,---,0.00,VWS V14.01,2013-01-06 14:00:00,
2013-01-06 09:05:00,33.4,17.3,30.09,SW,235,4.0,7.8,51,0.00,,---,0.00,VWS V14.01,2013-01-06 14:05:00,
2013-01-06 09:10:00,33.8,17.1,30.06,SW,219,5.8,11.0,50,0.00,,---,0.00,VWS V14.01,2013-01-06 14:10:00,
2013-01-06 09:15:00,34.3,17.2,30.06,SW,228,4.5,10.5,49,0.00,,---,0.00,VWS V14.01,2013-01-06 14:15:00,
2013-01-06 09:20:00,34.9,17.2,30.06,SW,221,3.6,12.1,48,0.00,,---,0.00,VWS V14.01,2013-01-06 14:20:00,
2013-01-06 09:25:00,35.4,17.2,30.06,West,261,3.6,10.5,47,0.00,,---,0.00,VWS V14.01,2013-01-06 14:25:00,
2013-01-06 09:30:00,36.1,17.4,30.06,SW,225,5.8,9.2,46,0.00,,---,0.00,VWS V14.01,2013-01-06 14:30:00,
2013-01-06 09:35:00,36.7,17.4,30.06,WSW,244,4.9,6.9,45,0.00,,---,0.00,VWS V14.01,2013-01-06 14:35:00,
2013-01-06 09:40:00,36.9,15.9,30.06,WSW,246,6.9,9.2,42,0.00,,---,0.00,VWS V14.01,2013-01-06 14:40:00,
2013-01-06 09:45:00,37.0,16.1,30.06,SW,235,6.9,9.6,42,0.00,,---,0.00,VWS V14.01,2013-01-06 14:45:00,
2013-01-06 09:50:00,37.2,15.7,30.06,SW,226,6.7,11.2,41,0.00,,---,0.00,VWS V14.01,2013-01-06 14:50:00,
2013-01-06 09:55:00,37.2,15.7,30.06,West,259,7.4,10.5,41,0.00,,---,0.00,VWS V14.01,2013-01-06 14:55:00,
2013-01-06 10:00:00,37.6,16.0,30.06,SW,230,10.1,10.1,41,0.00,,---,0.00,VWS V14.01,2013-01-06 15:00:00,
2013-01-06 10:06:00,37.6,15.5,30.06,West,263,6.3,14.3,40,0.00,,---,0.00,VWS V14.01,2013-01-06 15:06:00,
2013-01-06 10:11:00,37.6,15.5,30.06,SW,234,9.2,11.6,40,0.00,,---,0.00,VWS V14.01,2013-01-06 15:11:00,
2013-01-06 10:16:00,37.6,15.5,30.06,WSW,253,6.9,12.5,40,0.00,,---,0.00,VWS V14.01,2013-01-06 15:16:00,
2013-01-06 10:21:00,38.1,15.4,30.06,SW,234,6.9,11.0,39,0.00,,---,0.00,VWS V14.01,2013-01-06 15:21:00,
2013-01-06 10:26:00,38.5,15.7,30.06,SSW,205,6.9,10.5,39,0.00,,---,0.00,VWS V14.01,2013-01-06 15:26:00,
2013-01-06 10:31:00,39.0,16.2,30.06,SSW,199,6.3,7.8,39,0.00,,---,0.00,VWS V14.01,2013-01-06 15:31:00,
2013-01-06 10:36:00,39.4,16.5,30.03,WSW,240,5.4,10.1,39,0.00,,---,0.00,VWS V14.01,2013-01-06 15:36:00,
2013-01-06 10:41:00,39.7,15.0,30.03,SW,234,6.7,11.2,36,0.00,,---,0.00,VWS V14.01,2013-01-06 15:41:00,
2013-01-06 10:46:00,40.3,15.5,30.03,West,261,3.1,6.9,36,0.00,,---,0.00,VWS V14.01,2013-01-06 15:46:00,
2013-01-06 10:51:00,41.2,16.3,30.03,WSW,244,7.8,10.1,36,0.00,,---,0.00,VWS V14.01,2013-01-06 15:51:00,
2013-01-06 10:56:00,41.7,16.1,30.03,West,276,5.8,11.0,35,0.00,,---,0.00,VWS V14.01,2013-01-06 15:56:00,
2013-01-06 11:01:00,42.1,14.4,30.03,SW,234,9.2,11.2,32,0.00,,---,0.00,VWS V14.01,2013-01-06 16:01:00,
2013-01-06 11:06:00,41.7,14.1,30.03,NW,311,4.5,10.5,32,0.00,,---,0.00,VWS V14.01,2013-01-06 16:06:00,
2013-01-06 11:11:00,41.7,13.3,30.03,WNW,302,7.4,11.2,31,0.00,,---,0.00,VWS V14.01,2013-01-06 16:11:00,
2013-01-06 11:16:00,41.9,14.2,30.03,NW,313,7.8,14.8,32,0.00,,---,0.00,VWS V14.01,2013-01-06 16:16:00,
2013-01-06 11:21:00,42.1,13.6,30.03,West,277,4.0,10.1,31,0.00,,---,0.00,VWS V14.01,2013-01-06 16:21:00,
2013-01-06 11:26:00,42.4,14.0,30.03,West,281,4.5,10.5,31,0.00,,---,0.00,VWS V14.01,2013-01-06 16:26:00,
2013-01-06 11:31:00,42.8,14.3,30.03,WNW,285,6.7,11.0,31,0.00,,---,0.00,VWS V14.01,2013-01-06 16:31:00,
2013-01-06 11:36:00,43.0,13.7,30.00,West,277,5.8,10.5,30,0.00,,---,0.00,VWS V14.01,2013-01-06 16:36:00,
2013-01-06 11:41:00,43.0,13.7,30.00,West,272,4.9,9.6,30,0.00,,---,0.00,VWS V14.01,2013-01-06 16:41:00,
2013-01-06 11:46:00,43.0,12.9,30.00,WSW,237,6.3,9.6,29,0.00,,---,0.00,VWS V14.01,2013-01-06 16:46:00,
2013-01-06 11:51:00,43.0,12.9,30.00,WSW,257,6.7,9.6,29,0.00,,---,0.00,VWS V14.01,2013-01-06 16:51:00,
2013-01-06 11:56:00,43.0,12.9,30.00,WSW,239,7.4,8.3,29,0.00,,---,0.00,VWS V14.01,2013-01-06 16:56:00,
2013-01-06 12:01:00,42.8,12.8,30.00,SW,226,5.8,10.1,29,0.00,,---,0.00,VWS V14.01,2013-01-06 17:01:00,
2013-01-06 12:06:00,42.4,12.4,30.00,West,267,7.8,10.1,29,0.00,,---,0.00,VWS V14.01,2013-01-06 17:06:00,
2013-01-06 12:11:00,42.3,12.3,30.00,WNW,297,4.5,10.5,29,0.00,,---,0.00,VWS V14.01,2013-01-06 17:11:00,
2013-01-06 12:16:00,43.2,13.1,30.00,SW,226,5.8,8.3,29,0.00,,---,0.00,VWS V14.01,2013-01-06 17:16:00,
2013-01-06 12:21:00,43.2,13.1,29.97,SW,222,4.0,7.8,29,0.00,,---,0.00,VWS V14.01,2013-01-06 17:21:00,
2013-01-06 12:26:00,43.5,13.4,29.97,SW,220,3.1,6.9,29,0.00,,---,0.00,VWS V14.01,2013-01-06 17:26:00,
2013-01-06 12:31:00,43.9,12.9,29.97,NW,309,5.8,7.4,28,0.00,,---,0.00,VWS V14.01,2013-01-06 17:31:00,
2013-01-06 12:36:00,43.7,12.8,29.97,WSW,247,4.5,10.1,28,0.00,,---,0.00,VWS V14.01,2013-01-06 17:36:00,
2013-01-06 12:41:00,43.5,12.6,29.97,West,265,7.8,10.5,28,0.00,,---,0.00,VWS V14.01,2013-01-06 17:41:00,
2013-01-06 12:46:00,43.7,12.8,29.97,NW,309,6.9,10.5,28,0.00,,---,0.00,VWS V14.01,2013-01-06 17:46:00,
2013-01-06 12:51:00,44.1,13.1,29.97,West,260,8.7,10.5,28,0.00,,---,0.00,VWS V14.01,2013-01-06 17:51:00,
2013-01-06 12:56:00,44.1,13.1,29.97,WNW,284,5.4,8.3,28,0.00,,---,0.00,VWS V14.01,2013-01-06 17:56:00,
2013-01-06 13:01:00,44.1,13.1,29.97,WSW,239,3.1,9.6,28,0.00,,---,0.00,VWS V14.01,2013-01-06 18:01:00,
2013-01-06 13:06:00,44.2,13.2,29.97,West,266,8.7,11.0,28,0.00,,---,0.00,VWS V14.01,2013-01-06 18:06:00,
2013-01-06 13:11:00,44.2,13.2,29.97,WNW,283,9.2,11.0,28,0.00,,---,0.00,VWS V14.01,2013-01-06 18:11:00,
2013-01-06 13:16:00,44.4,13.4,29.97,West,269,5.8,8.7,28,0.00,,---,0.00,VWS V14.01,2013-01-06 18:16:00,
2013-01-06 13:22:00,44.4,12.6,29.97,West,262,5.4,13.4,27,0.00,,---,0.00,VWS V14.01,2013-01-06 18:22:00,
2013-01-06 13:27:00,44.1,12.2,29.97,SSW,208,5.8,8.7,27,0.00,,---,0.00,VWS V14.01,2013-01-06 18:27:00,
2013-01-06 13:32:00,43.7,11.9,29.97,WSW,246,4.5,10.1,27,0.00,,---,0.00,VWS V14.01,2013-01-06 18:32:00,
2013-01-06 13:37:00,43.7,11.9,29.97,WNW,299,6.7,12.5,27,0.00,,---,0.00,VWS V14.01,2013-01-06 18:37:00,
2013-01-06 13:42:00,43.7,11.9,29.97,SW,221,4.5,8.3,27,0.00,,---,0.00,VWS V14.01,2013-01-06 18:42:00,
2013-01-06 13:47:00,44.1,12.2,29.97,West,275,6.7,8.3,27,0.00,,---,0.00,VWS V14.01,2013-01-06 18:47:00,
2013-01-06 13:52:00,44.4,12.6,29.97,WSW,258,5.8,8.3,27,0.00,,---,0.00,VWS V14.01,2013-01-06 18:52:00,
2013-01-06 13:57:00,44.4,12.6,29.97,NW,323,6.9,9.2,27,0.00,,---,0.00,VWS V14.01,2013-01-06 18:57:00,
2013-01-06 14:02:00,44.4,12.6,29.97,West,263,5.4,8.7,27,0.00,,---,0.00,VWS V14.01,2013-01-06 19:02:00,
2013-01-06 14:07:00,44.6,12.7,29.94,WSW,251,7.8,9.6,27,0.00,,---,0.00,VWS V14.01,2013-01-06 19:07:00,
2013-01-06 14:12:00,44.2,12.4,29.94,SSW,213,2.7,8.7,27,0.00,,---,0.00,VWS V14.01,2013-01-06 19:12:00,
2013-01-06 14:17:00,43.9,12.1,29.94,NW,311,5.8,9.6,27,0.00,,---,0.00,VWS V14.01,2013-01-06 19:17:00,
2013-01-06 14:22:00,44.1,12.2,29.94,West,276,5.8,9.6,27,0.00,,---,0.00,VWS V14.01,2013-01-06 19:22:00,
2013-01-06 14:27:00,43.7,11.9,29.94,SW,233,6.7,8.7,27,0.00,,---,0.00,VWS V14.01,2013-01-06 19:27:00,
2013-01-06 14:32:00,43.7,11.9,29.94,WSW,238,3.6,9.2,27,0.00,,---,0.00,VWS V14.01,2013-01-06 19:32:00,
2013-01-06 14:37:00,43.7,11.9,29.94,WSW,251,4.9,7.4,27,0.00,,---,0.00,VWS V14.01,2013-01-06 19:37:00,
2013-01-06 14:42:00,43.7,11.9,29.94,SSW,211,4.0,5.8,27,0.00,,---,0.00,VWS V14.01,2013-01-06 19:42:00,
2013-01-06 14:47:00,43.7,11.9,29.94,SSW,207,4.0,6.7,27,0.00,,---,0.00,VWS V14.01,2013-01-06 19:47:00,
2013-01-06 14:52:00,43.7,12.8,29.94,SW,233,4.9,6.7,28,0.00,,---,0.00,VWS V14.01,2013-01-06 19:52:00,
2013-01-06 14:57:00,43.5,12.6,29.94,WSW,238,6.7,7.4,28,0.00,,---,0.00,VWS V14.01,2013-01-06 19:57:00,
2013-01-06 15:02:00,43.3,12.4,29.94,WSW,237,2.7,3.1,28,0.00,,---,0.00,VWS V14.01,2013-01-06 20:02:00,
2013-01-06 15:08:00,43.5,12.6,29.94,NW,308,5.4,5.4,28,0.00,,---,0.00,VWS V14.01,2013-01-06 20:08:00,
2013-01-06 15:11:00,43.5,12.6,29.94,SW,222,2.7,6.3,28,0.00,,---,0.00,VWS V14.01,2013-01-06 20:11:00,
2013-01-06 15:13:00,43.5,12.6,29.94,SSW,210,7.8,8.7,28,0.00,,---,0.00,VWS V14.01,2013-01-06 20:13:00,
2013-01-06 15:18:00,43.2,12.3,29.94,WSW,245,4.0,7.8,28,0.00,,---,0.00,VWS V14.01,2013-01-06 20:18:00,
2013-01-06 15:24:00,43.2,12.3,29.94,SW,218,5.4,5.4,28,0.00,,---,0.00,VWS V14.01,2013-01-06 20:24:00,
2013-01-06 15:29:00,43.0,12.1,29.94,WNW,291,5.4,6.3,28,0.00,,---,0.00,VWS V14.01,2013-01-06 20:29:00,
2013-01-06 15:34:00,43.0,12.1,29.94,WSW,242,5.4,7.4,28,0.00,,---,0.00,VWS V14.01,2013-01-06 20:34:00,
2013-01-06 15:39:00,42.8,12.0,29.94,SW,234,5.4,6.7,28,0.00,,---,0.00,VWS V14.01,2013-01-06 20:39:00,
2013-01-06 15:44:00,42.6,11.8,29.94,SW,218,5.4,6.7,28,0.00,,---,0.00,VWS V14.01,2013-01-06 20:44:00,
2013-01-06 15:49:00,42.4,11.7,29.94,WSW,246,3.1,5.4,28,0.00,,---,0.00,VWS V14.01,2013-01-06 20:49:00,
2013-01-06 15:54:00,42.1,11.3,29.94,West,262,5.4,6.7,28,0.00,,---,0.00,VWS V14.01,2013-01-06 20:54:00,
2013-01-06 15:59:00,41.7,11.0,29.94,WSW,238,2.7,4.9,28,0.00,,---,0.00,VWS V14.01,2013-01-06 20:59:00,
2013-01-06 16:00:00,41.7,11.0,29.94,WSW,238,4.0,4.9,28,0.00,,---,0.00,VWS V14.01,2013-01-06 21:00:00,
2013-01-06 16:05:00,41.5,10.9,29.94,SW,235,5.8,8.3,28,0.00,,---,0.00,VWS V14.01,2013-01-06 21:05:00,
2013-01-06 16:10:00,41.5,10.9,29.94,SW,231,4.0,6.9,28,0.00,,---,0.00,VWS V14.01,2013-01-06 21:10:00,
2013-01-06 16:15:00,41.2,10.6,29.94,SW,229,2.7,6.3,28,0.00,,---,0.00,VWS V14.01,2013-01-06 21:15:00,
2013-01-06 16:20:00,41.0,10.4,29.94,WSW,246,4.0,6.7,28,0.00,,---,0.00,VWS V14.01,2013-01-06 21:20:00,
2013-01-06 16:25:00,40.6,10.1,29.94,SW,236,0.0,4.5,28,0.00,,---,0.00,VWS V14.01,2013-01-06 21:25:00,
2013-01-06 16:30:00,40.3,9.8,29.94,SW,236,0.0,2.7,28,0.00,,---,0.00,VWS V14.01,2013-01-06 21:30:00,
2013-01-06 16:35:00,39.9,9.5,29.94,WSW,251,2.7,6.3,28,0.00,,---,0.00,VWS V14.01,2013-01-06 21:35:00,
2013-01-06 16:40:00,39.6,9.9,29.94,WSW,250,0.0,4.0,29,0.00,,---,0.00,VWS V14.01,2013-01-06 21:40:00,
2013-01-06 16:45:00,39.2,9.6,29.94,WSW,250,0.0,0.0,29,0.00,,---,0.00,VWS V14.01,2013-01-06 21:45:00,
2013-01-06 16:51:00,38.7,9.2,29.94,WSW,250,0.0,0.0,29,0.00,,---,0.00,VWS V14.01,2013-01-06 21:51:00,
2013-01-06 16:56:00,38.3,9.6,29.94,WSW,249,0.0,0.0,30,0.00,,---,0.00,VWS V14.01,2013-01-06 21:56:00,
2013-01-06 17:01:00,37.9,9.3,29.94,WSW,250,0.0,0.0,30,0.00,,---,0.00,VWS V14.01,2013-01-06 22:01:00,
2013-01-06 17:06:00,37.6,9.0,29.94,WSW,250,0.0,0.0,30,0.00,,---,0.00,VWS V14.01,2013-01-06 22:06:00,
2013-01-06 17:11:00,37.2,9.4,29.94,WSW,249,0.0,0.0,31,0.00,,---,0.00,VWS V14.01,2013-01-06 22:11:00,
2013-01-06 17:16:00,36.9,9.1,29.94,WSW,249,0.0,0.0,31,0.00,,---,0.00,VWS V14.01,2013-01-06 22:16:00,
2013-01-06 17:21:00,36.3,9.3,29.94,WSW,249,0.0,0.0,32,0.00,,---,0.00,VWS V14.01,2013-01-06 22:21:00,
2013-01-06 17:26:00,36.1,9.1,29.94,WSW,249,0.0,0.0,32,0.00,,---,0.00,VWS V14.01,2013-01-06 22:26:00,
2013-01-06 17:31:00,35.8,9.5,29.94,WSW,249,0.0,0.0,33,0.00,,---,0.00,VWS V14.01,2013-01-06 22:31:00,
2013-01-06 17:36:00,35.6,9.4,29.97,WSW,250,0.0,0.0,33,0.00,,---,0.00,VWS V14.01,2013-01-06 22:36:00,
2013-01-06 17:41:00,35.4,9.2,29.97,WSW,249,0.0,0.0,33,0.00,,---,0.00,VWS V14.01,2013-01-06 22:41:00,
2013-01-06 17:46:00,35.1,8.9,29.97,WSW,249,0.0,2.7,33,0.00,,---,0.00,VWS V14.01,2013-01-06 22:46:00,
2013-01-06 17:51:00,34.9,9.4,29.97,WSW,249,0.0,2.7,34,0.00,,---,0.00,VWS V14.01,2013-01-06 22:51:00,
2013-01-06 17:56:00,34.7,9.2,29.97,WSW,249,0.0,3.1,34,0.00,,---,0.00,VWS V14.01,2013-01-06 22:56:00,
2013-01-06 18:01:00,34.5,9.7,29.97,WSW,250,0.0,3.1,35,0.00,,---,0.00,VWS V14.01,2013-01-06 23:01:00,
2013-01-06 18:06:00,34.5,9.7,29.97,WSW,249,0.0,0.0,35,0.00,,---,0.00,VWS V14.01,2013-01-06 23:06:00,
2013-01-06 18:11:00,34.3,9.5,29.97,WSW,249,0.0,0.0,35,0.00,,---,0.00,VWS V14.01,2013-01-06 23:11:00,
2013-01-06 18:16:00,34.2,10.0,29.97,WSW,249,0.0,2.7,36,0.00,,---,0.00,VWS V14.01,2013-01-06 23:16:00,
2013-01-06 18:21:00,33.8,10.3,29.97,WSW,250,0.0,0.0,37,0.00,,---,0.00,VWS V14.01,2013-01-06 23:21:00,
2013-01-06 18:26:00,33.6,10.1,29.97,WSW,250,2.7,3.6,37,0.00,,---,0.00,VWS V14.01,2013-01-06 23:26:00,
2013-01-06 18:31:00,33.4,10.0,29.97,WSW,250,0.0,4.0,37,0.00,,---,0.00,VWS V14.01,2013-01-06 23:31:00,
2013-01-06 18:36:00,33.3,10.4,29.97,WSW,250,3.6,5.4,38,0.00,,---,0.00,VWS V14.01,2013-01-06 23:36:00,
2013-01-06 18:41:00,33.3,11.6,29.97,WSW,254,3.1,4.9,40,0.00,,---,0.00,VWS V14.01,2013-01-06 23:41:00,
2013-01-06 18:46:00,33.6,11.9,29.97,WSW,247,4.0,4.9,40,0.00,,---,0.00,VWS V14.01,2013-01-06 23:46:00,
2013-01-06 18:51:00,33.8,12.1,29.97,SW,230,3.6,6.7,40,0.00,,---,0.00,VWS V14.01,2013-01-06 23:51:00,
2013-01-06 18:56:00,34.0,12.2,29.97,SW,233,4.0,5.4,40,0.00,,---,0.00,VWS V14.01,2013-01-06 23:56:00,
2013-01-06 19:01:00,34.2,12.9,29.97,WSW,241,3.1,6.3,41,0.00,,---,0.00,VWS V14.01,2013-01-07 00:01:00,
2013-01-06 19:06:00,34.3,13.1,29.97,West,261,4.9,5.4,41,0.00,,---,0.00,VWS V14.01,2013-01-07 00:06:00,
2013-01-06 19:11:00,34.5,13.3,29.97,SW,235,4.9,5.4,41,0.00,,---,0.00,VWS V14.01,2013-01-07 00:11:00,
2013-01-06 19:16:00,34.7,13.4,29.97,WSW,245,4.0,5.4,41,0.00,,---,0.00,VWS V14.01,2013-01-07 00:16:00,
2013-01-06 19:21:00,34.9,13.0,29.97,WSW,245,0.0,4.0,40,0.00,,---,0.00,VWS V14.01,2013-01-07 00:21:00,
2013-01-06 19:26:00,34.9,13.0,29.97,WSW,245,4.0,4.0,40,0.00,,---,0.00,VWS V14.01,2013-01-07 00:26:00,
2013-01-06 19:31:00,35.1,13.2,29.97,WSW,245,0.0,4.5,40,0.00,,---,0.00,VWS V14.01,2013-01-07 00:31:00,
2013-01-06 19:36:00,35.1,13.2,29.97,WSW,245,0.0,3.6,40,0.00,,---,0.00,VWS V14.01,2013-01-07 00:36:00,
2013-01-06 19:41:00,35.1,12.6,29.97,WSW,245,0.0,3.1,39,0.00,,---,0.00,VWS V14.01,2013-01-07 00:41:00,
2013-01-06 19:46:00,34.9,12.4,29.97,WSW,245,0.0,0.0,39,0.00,,---,0.00,VWS V14.01,2013-01-07 00:46:00,
2013-01-06 19:51:00,34.9,12.4,29.97,WSW,245,0.0,2.7,39,0.00,,---,0.00,VWS V14.01,2013-01-07 00:51:00,
2013-01-06 19:56:00,34.9,12.4,29.97,WSW,245,2.7,4.0,39,0.00,,---,0.00,VWS V14.01,2013-01-07 00:56:00,
2013-01-06 20:01:00,34.5,12.7,29.97,WSW,245,4.0,4.0,40,0.00,,---,0.00,VWS V14.01,2013-01-07 01:01:00,
2013-01-06 20:06:00,34.2,11.8,29.97,SW,232,3.1,4.9,39,0.00,,---,0.00,VWS V14.01,2013-01-07 01:06:00,
2013-01-06 20:11:00,34.0,12.2,29.97,SW,230,3.6,4.9,40,0.00,,---,0.00,VWS V14.01,2013-01-07 01:11:00,
2013-01-06 20:16:00,34.3,12.5,29.97,SW,230,4.0,7.8,40,0.00,,---,0.00,VWS V14.01,2013-01-07 01:16:00,
2013-01-06 20:21:00,34.5,12.7,29.97,SW,229,0.0,7.4,40,0.00,,---,0.00,VWS V14.01,2013-01-07 01:21:00,
2013-01-06 20:26:00,34.5,12.7,29.97,WSW,243,4.5,4.9,40,0.00,,---,0.00,VWS V14.01,2013-01-07 01:26:00,
2013-01-06 20:31:00,34.7,12.9,29.97,SW,222,3.6,6.7,40,0.00,,---,0.00,VWS V14.01,2013-01-07 01:31:00,
2013-01-06 20:36:00,34.5,12.7,29.97,NW,307,0.0,5.8,40,0.00,,---,0.00,VWS V14.01,2013-01-07 01:36:00,
2013-01-06 20:41:00,34.3,12.5,29.97,WSW,254,3.6,4.9,40,0.00,,---,0.00,VWS V14.01,2013-01-07 01:41:00,
2013-01-06 20:46:00,34.3,12.5,29.97,WSW,254,2.7,5.8,40,0.00,,---,0.00,VWS V14.01,2013-01-07 01:46:00,
2013-01-06 20:51:00,34.3,12.5,29.97,WSW,253,3.1,5.4,40,0.00,,---,0.00,VWS V14.01,2013-01-07 01:51:00,
2013-01-06 20:56:00,34.2,12.4,29.97,WSW,251,4.5,4.9,40,0.00,,---,0.00,VWS V14.01,2013-01-07 01:56:00,
2013-01-06 21:01:00,34.0,12.2,29.97,West,259,3.1,4.9,40,0.00,,---,0.00,VWS V14.01,2013-01-07 02:01:00,
2013-01-06 21:06:00,33.6,11.9,29.97,WSW,251,3.1,4.9,40,0.00,,---,0.00,VWS V14.01,2013-01-07 02:06:00,
2013-01-06 21:11:00,33.4,11.7,29.97,WSW,252,2.7,4.9,40,0.00,,---,0.00,VWS V14.01,2013-01-07 02:11:00,
2013-01-06 21:17:00,33.3,11.6,29.97,WSW,252,3.6,4.0,40,0.00,,---,0.00,VWS V14.01,2013-01-07 02:17:00,
2013-01-06 21:22:00,33.3,11.6,30.00,WSW,252,3.1,4.5,40,0.00,,---,0.00,VWS V14.01,2013-01-07 02:22:00,
2013-01-06 21:27:00,33.1,11.4,30.00,WSW,256,3.1,5.4,40,0.00,,---,0.00,VWS V14.01,2013-01-07 02:27:00,
2013-01-06 21:32:00,33.1,11.4,30.00,WSW,256,0.0,4.9,40,0.00,,---,0.00,VWS V14.01,2013-01-07 02:32:00,
2013-01-06 21:37:00,33.1,11.4,30.00,WSW,239,3.1,4.9,40,0.00,,---,0.00,VWS V14.01,2013-01-07 02:37:00,
2013-01-06 21:42:00,32.9,11.2,30.00,WSW,239,3.1,3.6,40,0.00,,---,0.00,VWS V14.01,2013-01-07 02:42:00,
2013-01-06 21:47:00,32.4,10.8,30.00,SW,229,3.1,6.3,40,0.00,,---,0.00,VWS V14.01,2013-01-07 02:47:00,
2013-01-06 21:52:00,32.0,11.0,30.00,SW,229,2.7,4.9,41,0.00,,---,0.00,VWS V14.01,2013-01-07 02:52:00,
2013-01-06 21:57:00,32.0,11.0,30.00,SW,232,8.7,8.7,41,0.00,,---,0.00,VWS V14.01,2013-01-07 02:57:00,
2013-01-06 22:02:00,32.2,11.1,30.00,SW,233,4.5,7.4,41,0.00,,---,0.00,VWS V14.01,2013-01-07 03:02:00,
2013-01-06 22:07:00,32.7,12.2,30.00,WSW,238,4.5,7.4,42,0.00,,---,0.00,VWS V14.01,2013-01-07 03:07:00,
2013-01-06 22:12:00,32.7,12.2,30.00,SW,224,4.9,5.8,42,0.00,,---,0.00,VWS V14.01,2013-01-07 03:12:00,
2013-01-06 22:17:00,32.9,12.3,30.00,West,280,3.1,7.4,42,0.00,,---,0.00,VWS V14.01,2013-01-07 03:17:00,
2013-01-06 22:22:00,32.5,12.0,30.00,SW,232,3.6,6.3,42,0.00,,---,0.00,VWS V14.01,2013-01-07 03:22:00,
2013-01-06 22:27:00,32.5,12.0,30.00,WSW,240,0.0,6.7,42,0.00,,---,0.00,VWS V14.01,2013-01-07 03:27:00,
2013-01-06 22:32:00,32.5,12.0,30.00,WSW,246,4.0,5.4,42,0.00,,---,0.00,VWS V14.01,2013-01-07 03:32:00,
2013-01-06 22:37:00,32.5,12.0,30.00,SW,229,4.0,5.8,42,0.00,,---,0.00,VWS V14.01,2013-01-07 03:37:00,
2013-01-06 22:42:00,32.7,12.2,30.00,SW,230,3.1,5.8,42,0.00,,---,0.00,VWS V14.01,2013-01-07 03:42:00,
2013-01-06 22:47:00,32.7,12.2,30.00,SW,230,3.1,5.4,42,0.00,,---,0.00,VWS V14.01,2013-01-07 03:47:00,
2013-01-06 22:52:00,32.7,12.2,30.00,WSW,242,2.7,5.4,42,0.00,,---,0.00,VWS V14.01,2013-01-07 03:52:00,
2013-01-06 22:57:00,32.7,12.2,30.00,SW,235,3.6,4.9,42,0.00,,---,0.00,VWS V14.01,2013-01-07 03:57:00,
2013-01-06 23:02:00,32.5,12.0,30.00,WSW,243,4.9,4.9,42,0.00,,---,0.00,VWS V14.01,2013-01-07 04:02:00,
2013-01-06 23:07:00,32.5,12.0,30.00,WSW,241,3.6,7.4,42,0.00,,---,0.00,VWS V14.01,2013-01-07 04:07:00,
2013-01-06 23:12:00,32.4,11.9,30.00,SW,235,3.1,5.4,42,0.00,,---,0.00,VWS V14.01,2013-01-07 04:12:00,
2013-01-06 23:17:00,32.2,11.7,30.00,SW,233,6.3,6.7,42,0.00,,---,0.00,VWS V14.01,2013-01-07 04:17:00,
2013-01-06 23:22:00,32.5,12.0,30.00,WSW,239,3.1,8.7,42,0.00,,---,0.00,VWS V14.01,2013-01-07 04:22:00,
2013-01-06 23:27:00,32.7,12.2,30.00,SW,235,5.8,7.4,42,0.00,,---,0.00,VWS V14.01,2013-01-07 04:27:00,
2013-01-06 23:32:00,32.7,12.2,30.00,SW,225,2.7,8.3,42,0.00,,---,0.00,VWS V14.01,2013-01-07 04:32:00,
2013-01-06 23:37:00,32.4,11.9,30.00,SW,227,5.4,5.4,42,0.00,,---,0.00,VWS V14.01,2013-01-07 04:37:00,
2013-01-06 23:42:00,32.2,11.7,30.00,WSW,256,3.6,5.8,42,0.00,,---,0.00,VWS V14.01,2013-01-07 04:42:00,
2013-01-06 23:47:00,32.0,11.5,30.00,WSW,256,0.0,0.0,42,0.00,,---,0.00,VWS V14.01,2013-01-07 04:47:00,
2013-01-06 23:52:00,32.0,11.5,30.00,West,272,6.3,6.3,42,0.00,,---,0.00,VWS V14.01,2013-01-07 04:52:00,
2013-01-06 23:57:00,31.8,11.4,30.00,WSW,246,4.5,4.5,42,0.00,,---,0.00,VWS V14.01,2013-01-07 04:57:00,